Weather in Sligo

Ireland     54°16′38″N   8°28′03″W
temp.,
°C
wind,
m/s
gust,
m/s
humid.,
%
clouds,
%
prec.,
mm/h
press.,
hPa
HPBL,
m
24 july, sat
sat2401:00+17se119011 0.3 101411
04:00+16ese119178 0.0 101211
07:00+17ese119074 0.0 101122
10:00+21ese12745 0.0 1012510
13:00+23nnw236783 0.8 10111014
16:00+23nw347026 0.8 1010527
19:00+20nw238377 2.7 1010113
22:00+17sse119063 0.2 101115
25 july, sun
sun2501:00+16sse229289 0.2 101115
04:00+15se119250 0.0 101115
07:00+16s00905 0.0 101125
10:00+20nw117686 0.0 1011367
13:00+21nw337020 0.0 1012665
16:00+21nw44671 0.0 1012468
19:00+19nw45715 0.0 1011304
22:00+15nw349113 0.0 1012110
26 july, mon
mon2601:00+14nnw2395100 0.0 101276
04:00+14nw3396100 0.0 1012142
07:00+15nnw2491100 0.0 1011407
10:00+16nw3486100 0.0 1012541
13:00+16nnw3584100 0.1 1011581
16:00+17nw448172 0.1 1011617
19:00+16nw358758 0.2 1011486
22:00+15nw698898 0.4 1011726
27 july, tue
tue2701:00+14nw578577 0.6 1011564
04:00+12nw358660 0.0 1011242
07:00+13wnw238777 0.1 1011230
10:00+15wnw347749 0.5 1011832
13:00+17wnw336731 1.0 10101018
16:00+16nw3374100 1.7 1009581
19:00+16nw1277100 3.1 1008283
22:00+13s2286100 1.0 100739
28 july, wed
wed2801:00+12se2392100 2.4 100586
04:00+11sse3597100 0.9 1003232
07:00+12sw249187 1.6 1002285
10:00+14wsw237615 0.4 1002781
13:00+15w447269 1.7 10021047
16:00+16wnw456826 1.0 10011072
19:00+14wnw567376 1.6 1001950
22:00+12w4781100 0.1 1001330